When you browse on this site, cookies collect data to enhance your experience and personalize the content and advertising you see.
Visit our Privacy Policy to learn more. By continuing to use the site, you agree to this use of cookies and data.
  • In Spain
  • List of Countries
  • For 7 days
  • Water Temperature
  • Satellite Maps
  • Weather Map
  • Weather Widgets
  • user-avatar
    Login

    Hourly Weather Calmeca

    Today, 16 December, Sunday

    Time Temperature Precipitation Wind Pressure Humidity
    00:00 +16°C° 0 mm 1 mps 651 mmHg 62%
    01:00 +16°C° 0 mm 1 mps 651 mmHg 63%
    02:00 +15°C° 0 mm 1 mps 650 mmHg 64%
    03:00 +15°C° 0 mm 1 mps 650 mmHg 65%
    04:00 +15°C° 0 mm 1 mps 650 mmHg 66%
    05:00 +14°C° 0 mm 1 mps 651 mmHg 67%
    06:00 +16°C° 0 mm 1 mps 651 mmHg 62%
    07:00 +19°C° 0 mm 1 mps 652 mmHg 57%
    08:00 +20°C° 0 mm 1 mps 653 mmHg 52%
    09:00 +22°C° 0 mm 1 mps 653 mmHg 46%
    10:00 +24°C° 0 mm 1 mps 653 mmHg 41%
    11:00 +27°C° 0 mm 1 mps 653 mmHg 35%
    12:00 +27°C° 0 mm 1 mps 653 mmHg 34%
    13:00 +28°C° 0 mm 1 mps 652 mmHg 33%
    14:00 +28°C° 0 mm 1 mps 651 mmHg 32%
    15:00 +26°C° 0 mm 1 mps 651 mmHg 37%
    16:00 +24°C° 0 mm 1 mps 650 mmHg 42%
    17:00 +22°C° 0 mm 1 mps 650 mmHg 47%
    18:00 +21°C° 0 mm 1 mps 650 mmHg 49%
    19:00 +21°C° 0 mm 1 mps 651 mmHg 52%
    20:00 +20°C° 0 mm 1 mps 651 mmHg 54%
    21:00 +19°C° 0 mm 1 mps 651 mmHg 56%
    22:00 +19°C° 0 mm 1 mps 651 mmHg 58%
    23:00 +18°C° 0 mm 1 mps 651 mmHg 61%

    Tomorrow, 17 December, Monday

    Time Temperature Precipitation Wind Pressure Humidity
    00:00 +18°C° 0 mm 1 mps 651 mmHg 62%
    01:00 +16°C° 0 mm 1 mps 650 mmHg 63%
    02:00 +16°C° 0 mm 1 mps 650 mmHg 65%
    03:00 +16°C° 0 mm 1 mps 650 mmHg 66%
    04:00 +15°C° 0 mm 1 mps 650 mmHg 67%
    05:00 +15°C° 0 mm 1 mps 649 mmHg 68%
    06:00 +16°C° 0 mm 1 mps 650 mmHg 63%
    07:00 +19°C° 0 mm 1 mps 651 mmHg 57%
    08:00 +21°C° 0 mm 1 mps 652 mmHg 52%
    09:00 +23°C° 0 mm 1 mps 652 mmHg 48%
    10:00 +25°C° 0 mm 1 mps 652 mmHg 43%
    11:00 +27°C° 0 mm 1 mps 653 mmHg 38%
    12:00 +27°C° 0 mm 1 mps 652 mmHg 37%
    13:00 +27°C° 0 mm 1 mps 651 mmHg 37%
    14:00 +28°C° 0 mm 2 mps 650 mmHg 36%
    15:00 +26°C° 0 mm 1 mps 650 mmHg 42%
    16:00 +24°C° 0 mm 1 mps 650 mmHg 48%
    17:00 +22°C° 0 mm 1 mps 649 mmHg 53%
    18:00 +21°C° 0 mm 1 mps 649 mmHg 57%
    19:00 +21°C° 0 mm 1 mps 650 mmHg 60%
    20:00 +20°C° 0 mm 1 mps 650 mmHg 63%
    21:00 +19°C° 0 mm 1 mps 650 mmHg 65%
    22:00 +19°C° 0 mm 1 mps 650 mmHg 67%
    23:00 +19°C° 0 mm 1 mps 650 mmHg 69%

    Day after tomorrow, 18 December, Tuesday

    Time Temperature Precipitation Wind Pressure Humidity
    00:00 +16°C° 0 mm 0 mps 649 mmHg 71%
    01:00 +16°C° 0 mm 0 mps 649 mmHg 73%
    02:00 +16°C° 0 mm 0 mps 648 mmHg 74%
    03:00 +15°C° 0 mm 0 mps 648 mmHg 76%
    04:00 +15°C° 0 mm 0 mps 648 mmHg 77%
    05:00 +15°C° 0 mm 0 mps 648 mmHg 79%
    06:00 +16°C° 0 mm 0 mps 649 mmHg 74%
    07:00 +18°C° 0 mm 0 mps 650 mmHg 68%
    08:00 +19°C° 0 mm 0 mps 650 mmHg 63%
    09:00 +23°C° 0 mm 1 mps 650 mmHg 57%
    10:00 +25°C° 0 mm 1 mps 651 mmHg 51%
    11:00 +26°C° 0 mm 2 mps 651 mmHg 44%
    12:00 +27°C° 0 mm 2 mps 650 mmHg 42%
    13:00 +27°C° 0 mm 2 mps 649 mmHg 40%
    14:00 +27°C° 0 mm 2 mps 648 mmHg 38%
    15:00 +26°C° 0 mm 2 mps 648 mmHg 43%
    16:00 +24°C° 0 mm 2 mps 648 mmHg 47%
    17:00 +23°C° 0 mm 1 mps 648 mmHg 52%
    18:00 +22°C° 0 mm 1 mps 648 mmHg 55%
    19:00 +21°C° 0 mm 1 mps 648 mmHg 58%
    20:00 +20°C° 0 mm 1 mps 649 mmHg 60%
    21:00 +20°C° 0 mm 1 mps 648 mmHg 62%
    22:00 +19°C° 0 mm 1 mps 648 mmHg 64%
    23:00 +19°C° 0 mm 1 mps 648 mmHg 66%

    19 December, Wednesday

    Time Temperature Precipitation Wind Pressure Humidity
    00:00 +18°C° 0 mm 1 mps 648 mmHg 66%
    01:00 +18°C° 0 mm 1 mps 647 mmHg 65%
    02:00 +16°C° 0 mm 1 mps 647 mmHg 65%
    03:00 +15°C° 0 mm 0 mps 647 mmHg 64%
    04:00 +15°C° 0 mm 0 mps 647 mmHg 63%
    05:00 +15°C° 0 mm 0 mps 647 mmHg 62%
    06:00 +16°C° 0 mm 0 mps 648 mmHg 57%
    07:00 +17°C° 0 mm 0 mps 648 mmHg 53%
    08:00 +19°C° 0 mm 0 mps 649 mmHg 48%
    09:00 +23°C° 0 mm 1 mps 649 mmHg 44%
    10:00 +25°C° 0 mm 2 mps 649 mmHg 41%
    11:00 +26°C° 0 mm 2 mps 649 mmHg 37%
    12:00 +27°C° 0 mm 3 mps 648 mmHg 36%
    13:00 +27°C° 0 mm 3 mps 648 mmHg 35%
    14:00 +27°C° 0 mm 3 mps 647 mmHg 33%
    15:00 +25°C° 0 mm 3 mps 647 mmHg 38%
    16:00 +24°C° 0 mm 2 mps 647 mmHg 42%
    17:00 +21°C° 0 mm 2 mps 646 mmHg 46%
    18:00 +20°C° 0 mm 2 mps 647 mmHg 49%
    19:00 +19°C° 0 mm 2 mps 647 mmHg 51%
    20:00 +19°C° 0 mm 1 mps 648 mmHg 54%
    21:00 +18°C° 0 mm 1 mps 647 mmHg 55%
    22:00 +18°C° 0 mm 1 mps 647 mmHg 56%
    23:00 +16°C° 0 mm 1 mps 647 mmHg 57%

    20 December, Thursday

    Time Temperature Precipitation Wind Pressure Humidity
    00:00 +16°C° 0 mm 1 mps 647 mmHg 58%
    01:00 +15°C° 0 mm 1 mps 647 mmHg 58%
    02:00 +14°C° 0 mm 0 mps 646 mmHg 59%
    03:00 +15°C° 0 mm 1 mps 647 mmHg 59%
    04:00 +14°C° 0 mm 1 mps 647 mmHg 60%
    05:00 +14°C° 0 mm 1 mps 647 mmHg 60%
    06:00 +16°C° 0 mm 1 mps 648 mmHg 57%
    07:00 +18°C° 0 mm 1 mps 649 mmHg 53%
    08:00 +20°C° 0 mm 1 mps 650 mmHg 49%
    09:00 +22°C° 0 mm 1 mps 651 mmHg 43%
    10:00 +24°C° 0 mm 1 mps 651 mmHg 37%
    11:00 +27°C° 0 mm 1 mps 651 mmHg 31%
    12:00 +27°C° 0 mm 1 mps 651 mmHg 30%
    13:00 +27°C° 0 mm 1 mps 650 mmHg 29%
    14:00 +27°C° 0 mm 1 mps 649 mmHg 27%
    15:00 +26°C° 0 mm 1 mps 649 mmHg 30%
    16:00 +24°C° 0 mm 1 mps 649 mmHg 33%
    17:00 +22°C° 0 mm 1 mps 649 mmHg 36%
    18:00 +20°C° 0 mm 2 mps 649 mmHg 40%
    19:00 +19°C° 0 mm 2 mps 650 mmHg 43%
    20:00 +18°C° 0 mm 2 mps 650 mmHg 46%
    21:00 +17°C° 0 mm 2 mps 650 mmHg 50%
    22:00 +16°C° 0 mm 2 mps 650 mmHg 53%
    23:00 +16°C° 0 mm 2 mps 650 mmHg 57%

    21 December, Friday

    Time Temperature Precipitation Wind Pressure Humidity
    00:00 +15°C° 0 mm 2 mps 649 mmHg 57%
    01:00 +14°C° 0 mm 2 mps 649 mmHg 58%
    02:00 +14°C° 0 mm 2 mps 649 mmHg 58%
    03:00 +13°C° 0 mm 2 mps 649 mmHg 57%
    04:00 +13°C° 0 mm 2 mps 649 mmHg 56%
    05:00 +12°C° 0 mm 2 mps 649 mmHg 55%
    06:00 +14°C° 0 mm 2 mps 650 mmHg 49%
    07:00 +15°C° 0 mm 2 mps 651 mmHg 44%
    08:00 +17°C° 0 mm 2 mps 652 mmHg 38%
    09:00 +19°C° 0 mm 2 mps 652 mmHg 31%
    10:00 +21°C° 0 mm 2 mps 652 mmHg 25%
    11:00 +25°C° 0 mm 3 mps 652 mmHg 18%
    12:00 +25°C° 0 mm 2 mps 652 mmHg 17%
    13:00 +26°C° 0 mm 2 mps 651 mmHg 16%
    14:00 +27°C° 0 mm 2 mps 651 mmHg 15%
    15:00 +24°C° 0 mm 2 mps 650 mmHg 18%
    16:00 +21°C° 0 mm 2 mps 650 mmHg 21%
    17:00 +19°C° 0 mm 2 mps 650 mmHg 24%
    18:00 +18°C° 0 mm 2 mps 650 mmHg 27%
    19:00 +17°C° 0 mm 2 mps 650 mmHg 29%
    20:00 +15°C° 0 mm 2 mps 651 mmHg 31%
    21:00 +15°C° 0 mm 2 mps 650 mmHg 33%
    22:00 +14°C° 0 mm 2 mps 650 mmHg 36%
    23:00 +13°C° 0 mm 2 mps 650 mmHg 38%
    Show more